Tracking 23762 objects as of 22-Oct-2021
HD Live streaming from Space Station
objects crossing your sky now

SOLRAD 7B

Track SOLRAD 7B now!
10-day predictions
SOLRAD 7B is classified as:


NORAD ID: 1291
Int'l Code: 1965-016D
Perigee: 903.8 km
Apogee: 935.5 km
Inclination: 70.1 °
Period: 103.3 minutes
Semi major axis: 7290 km
RCS: 0.5012 m2 (medium)
Launch date: March 9, 1965
Source: United States (US)
Launch site: AIR FORCE WESTERN TEST RANGE (AFWTR)
aabbcc
Your satellite tracking list
Your tracking list is empty




NASA's NSSDC Master Catalog

Two Line Element Set (TLE):
1 01291U 65016D   21295.33379030 -.00000045  00000-0  50585-5 0  9996
2 01291  70.0787 246.8942 0021783 198.2900 161.7425 13.94617886879855
Source of the keplerian elements: AFSPC